Terminal Aerodrome Forecast
Issued by NWS

Home | Current Version | Previous Version | Text Only | Print | Product List | Glossary On
Versions: 1 2 3 4 5 6 7 8 9 10 11 12 13 14 15 16 17 18 19
000
FTUS45 KPSR 282300
TAFPHX
TAF
KPHX 282327Z 2900/2924 26004KT P6SM FEW150 BKN250
     FM290500 10004KT P6SM FEW250
     FM292200 27004KT P6SM FEW250=

USA.gov is the U.S. government's official web portal to all federal, state and local government web resources and services.